Location: West Chester
(39.9610°N, 75.6060°W)
Time: 20:11:50
(UTC-04:00)

ARIANE 6 FM1 Upper Stage - Pass Details

Date: 26 September 2024
Orbit: 563 x 594 km, 62.0° (Epoch: 11 October)

Event Time Altitude Azimuth Distance (km) Brightness Sun altitude
Rises 19:25:50 0° 232° (SW) 2,766 7.0 -7.3°
Reaches altitude 10° 19:28:08 10° 239° (WSW) 1,877 6.3 -7.8°
Maximum altitude 19:32:11 43° 311° (NW) 825 4.0 -8.5°
Drops below altitude 10° 19:36:18 10° 24° (NNE) 1,909 5.2 -9.3°
Sets 19:38:39 0° 31° (NNE) 2,818 6.0 -9.8°
